CAPE
1761 1598 1460 1419 1500 1638 1984 2219 2059 2037 2072 2107 1878 1609 1305 1181 1570 2079 2331 2757 2901 3046 3938 4386 3894 3816 2808 3009 3990 3329 3441 3844 4642 3784 3639 3115 2939 3262 2440 2074 2604 2559
1887 1732 1666 1274 1428 1689 2011 2392 2282 2183 2362 2243 2251 2307 1988 2097 1698 2208 2091 2303 3072 3244 3850 4681 4447 3550 3338 2929 3640 3556 3348 3035 3111 2367 2412 3285 3432 2211 2331 2135 2185 2399
1990 1867 1751 1542 1224 1492 1625 1863 2301 2560 2414 2249 1808 2145 2485 2147 2374 2146 2300 2110 2287 2447 3135 3785 3834 4068 3680 3107 4374 4050 3809 4102 3245 3040 3112 3420 3622 3132 3059 2556 2292 2331
2082 1878 1518 1280 1068 955 1335 1750 1737 2120 2125 2212 2173 2014 1709 2159 2152 2729 3129 2831 2931 3002 3265 3561 3206 3536 3569 3348 3709 3331 2556 3864 3963 3367 3114 3180 3156 2816 2787 3190 2588 2086
1991 1916 1491 1212 935 884 1197 1098 1514 1804 1738 2036 2050 2125 2261 2078 2643 2513 2876 3314 2811 3204 2990 3493 3972 3460 3478 3621 4130 3808 3043 3404 3420 3936 3509 3109 3027 2606 2413 2610 2530 2390
1600 1630 1622 1250 1045 910 731 821 787 1502 1893 1513 1735 1923 1938 2293 2250 2613 2597 2754 2926 2298 2378 2622 2881 2864 2965 3334 3767 3572 3040 2657 2722 3714 3984 3838 3309 2798 2297 2481 2329 1902
1338 1446 1352 1168 987 684 728 710 689 1132 1477 1729 1771 1679 1864 2191 2241 2281 2378 2484 2568 2631 2088 2047 2605 2608 2318 2608 3566 3759 3593 3334 3208 3348 3995 3684 3870 3302 2761 2261 2588 2938
1398 983 1269 1174 862 856 761 414 409 741 998 1133 1483 1873 1851 1834 2366 2260 2089 2322 2254 2140 2260 2042 2460 2867 2711 2352 2623 3716 3808 3212 2314 2991 4136 4174 4196 3880 3832 2363 2631 3021
1898 1820 1735 1272 832 633 658 519 522 436 556 710 780 1081 1643 1812 1924 2071 2061 2079 1932 1925 1982 2083 2399 2806 2908 2575 2384 2613 3056 2710 2566 2567 3086 3011 2880 3260 3071 2950 2970 2770
2124 2077 1934 1726 1400 1184 735 604 398 177 381 306 810 703 631 1525 1658 1681 1599 1936 2286 2198 2126 2347 2281 2248 2506 2694 2666 2605 2944 3352 3351 2931 2821 2521 2522 2586 2684 3006 2674 2722
1675 1838 1881 1839 1777 1216 1104 703 447 221 201 296 427 365 413 475 1222 1621 1422 1765 1841 1989 2151 2048 2304 2558 2712 2447 2339 2349 2411 2704 2487 2602 2831 2714 2880 2781 2850 2750 2397 2470
2988 2520 2105 1599 1496 1479 1506 1013 384 260 228 210 282 396 361 328 353 885 1211 1328 1623 1979 2022 2180 2185 2565 2629 2977 2432 2156 2008 2240 2335 2949 2812 2548 2475 2387 2554 2900 2507 2655
2890 3045 2586 2018 2492 2938 2999 2252 1048 371 332 266 303 363 362 334 242 233 752 1327 1566 1635 2033 2303 2624 2276 3045 3502 3290 2620 2312 1913 1884 2323 2209 2212 1897 1619 1828 2003 1811 2147
2530 2654 1932 1863 2376 2000 2044 2778 1992 1461 349 597 504 470 549 507 256 177 131 508 1198 1940 2369 2593 3347 3070 3285 3567 3070 3227 2613 2149 1895 1878 1595 2520 1852 1723 1898 1666 1313 1804
3346 2104 1662 1645 2332 2856 2971 2673 2183 1454 1102 1421 1396 518 494 292 634 332 270 323 424 1081 2336 2946 2928 3547 2875 2865 2981 3052 2668 1725 1683 2093 2852 2895 2812 2082 1612 1853 2334 2303
3367 2596 2061 1679 1793 1828 2376 2095 2382 2793 2520 2005 1605 1267 1196 827 829 370 370 297 440 829 1720 2217 3218 2587 1729 1858 2489 2568 2335 2058 1854 1920 2478 3071 2699 2591 2422 2074 2190 2982
2965 2309 1890 1819 1840 2151 2119 2219 2068 2225 2288 2155 1719 1584 1670 1828 1717 472 614 685 551 550 1198 1276 1371 1465 1514 1812 2105 2244 2438 3038 2152 1684 1496 1879 3088 3077 2494 2073 1987 2255
2721 2325 1932 1796 1236 1656 2199 2362 2903 2977 2912 2474 1930 1737 2243 1842 1472 816 650 972 1266 1084 898 979 1098 896 1234 1815 2003 1865 1752 2479 2539 2426 1865 1895 2003 2207 2275 2770 2922 2799
1801 2353 2540 2180 1688 1719 2251 2800 2488 2328 2595 2368 2324 1861 1534 1575 1305 1330 1312 1593 1816 1396 1085 890 847 718 744 1176 1448 1863 1841 1699 1585 1837 2396 1871 1431 1340 2500 2713 3284 3197
2310 2412 2686 2840 2337 2265 1835 1958 1890 2068 1996 1987 1688 1542 1455 1036 1205 1161 1505 1933 1869 1353 994 1016 921 1238 1344 1238 1388 1602 1672 1535 1183 1512 1310 1615 1647 1061 1107 1888 2990 1684
2133 2310 2089 2090 2067 1928 1656 1672 1114 1504 1991 2354 2133 1742 1326 1376 1023 1253 1623 1538 1212 1100 906 881 742 738 860 908 907 922 802 630 594 1368 1998 1539 1495 1624 1745 1485 1790 1862
1440 1418 1537 1490 1436 1528 1507 1564 1603 1911 1486 1482 1328 1184 1195 1314 1074 916 912 1177 1200 1156 1213 724 633 735 757 751 780 747 620 504 936 1849 1824 1629 2119 1486 1782 1852 1464 1092
978 866 1256 1218 1176 1510 1577 1401 1064 1183 856 1006 1108 1070 1093 1014 806 726 632 903 1042 947 570 343 358 476 550 490 518 520 543 565 1220 1399 1751 2065 1838 1728 1448 1064 660 608
598 682 669 656 726 766 806 790 740 603 621 649 627 707 722 685 542 499 475 408 382 449 469 518 537 485 377 325 327 384 451 525 836 711 726 1032 1670 1526 1549 1105 625 567
460 446 412 432 415 498 525 572 533 507 455 476 536 516 421 318 325 313 276 304 264 238 270 308 260 216 207 240 277 339 374 346 405 386 570 489 561 499 534 426 561 427
280 320 355 317 222 418 354 383 432 379 326 288 167 161 126 148 134 150 173 129 117 138 170 166 130 126 114 122 129 125 131 231 231 212 327 354 313 274 264 237 198 166
Wind_Speed
5 5 5 4 2 2 2 1 1 2 1 3 3 3 3 4 2 4 3 5 4 2 2 1 2 1 2 2 1 2 4 5 2 2 4 3 5 2 4 8 5 2
5 5 6 5 5 4 3 3 3 3 5 3 4 7 6 6 5 4 4 4 5 3 4 4 2 1 1 2 4 3 3 5 5 4 4 5 4 3 4 7 6 4
5 6 6 5 6 6 4 5 4 5 5 5 5 6 6 7 6 7 5 4 4 5 6 5 4 3 2 2 5 2 1 2 4 3 4 4 4 3 4 4 4 4
6 6 6 6 5 7 7 7 7 6 4 6 6 7 6 7 8 8 7 5 5 4 5 6 5 5 4 4 4 2 3 2 2 2 1 2 3 3 3 1 2 4
9 7 6 7 8 7 8 8 6 8 6 7 8 7 9 6 6 7 8 8 7 6 6 6 7 5 6 6 6 3 2 3 4 3 2 2 4 5 4 5 6 5
11 10 9 7 9 9 8 9 8 7 9 9 8 9 10 9 7 6 7 8 9 7 7 8 7 7 7 7 7 5 3 3 3 6 6 4 3 4 5 5 4 4
13 14 11 10 9 9 8 9 9 9 8 8 10 9 10 10 9 7 6 6 6 8 8 8 10 7 8 8 9 6 5 4 3 4 6 5 4 2 1 1 3 3
14 16 14 13 11 10 10 9 9 11 10 10 9 10 10 9 10 9 8 7 6 6 7 8 10 10 8 9 9 11 8 7 4 6 6 4 3 5 3 3 3 4
14 15 16 14 12 12 11 11 12 11 12 10 10 11 12 10 10 9 10 9 8 8 8 8 9 10 10 9 9 9 9 6 9 8 8 6 4 6 5 6 5 5
14 14 13 14 13 14 13 13 13 14 13 12 11 12 13 14 11 11 10 11 11 10 10 9 9 9 9 10 10 9 9 9 8 11 11 12 7 9 8 8 7 8
14 15 14 12 13 14 15 15 15 14 16 15 13 13 14 15 15 14 13 13 12 11 10 10 9 10 10 10 10 12 10 12 11 10 10 9 10 11 8 11 11 7
18 20 14 14 13 12 14 15 16 16 16 17 16 15 15 15 16 17 16 15 14 13 12 11 11 10 11 11 11 11 12 12 13 15 11 9 11 12 12 14 10 11
19 17 18 17 21 21 25 23 16 14 17 16 19 17 16 16 17 17 18 18 17 15 14 13 12 11 12 12 12 12 12 12 14 18 13 12 11 11 12 11 12 12
18 25 26 20 22 23 21 22 25 20 16 15 17 18 18 17 16 18 19 19 18 18 17 18 20 18 15 14 15 15 17 14 16 14 15 18 20 18 18 20 16 11
23 25 20 17 19 19 20 23 26 26 22 23 21 16 18 17 17 17 18 20 19 17 17 23 22 18 22 24 23 18 19 20 15 14 18 21 21 20 17 16 15 17
24 25 25 23 22 21 21 24 24 24 27 29 31 26 18 18 19 18 17 18 19 19 18 24 24 30 31 26 20 23 22 25 26 20 19 21 22 19 17 15 16 19
23 27 26 26 27 26 26 26 25 24 26 28 29 28 29 26 21 18 20 19 19 21 28 35 26 30 30 32 31 24 20 22 24 22 16 16 20 19 18 18 18 20
23 28 29 31 29 25 26 26 28 28 26 26 29 30 32 31 32 31 28 29 30 35 33 32 34 36 35 36 31 28 27 23 22 23 20 18 22 20 20 23 24 26
23 25 28 29 31 29 28 31 32 30 28 28 29 33 33 32 31 32 29 27 30 35 35 34 36 40 37 39 36 34 33 28 24 21 26 22 19 21 25 27 28 30
28 29 30 31 31 31 32 33 35 35 31 31 33 35 34 35 34 34 33 34 38 40 37 37 39 40 39 39 38 37 35 32 27 25 25 28 27 24 23 26 27 30
28 31 29 30 30 29 27 28 28 31 34 36 37 37 36 36 36 37 37 37 38 40 38 39 41 41 43 41 41 40 37 32 29 28 30 30 24 22 24 21 25 29
22 22 25 26 26 26 25 25 26 30 36 40 42 43 42 42 40 40 40 40 39 39 37 42 43 46 44 43 42 41 36 33 33 31 31 32 34 29 30 34 34 30
19 18 18 20 21 21 23 28 28 30 35 37 39 41 43 45 44 44 44 45 45 43 43 43 45 46 47 48 47 45 40 37 36 33 31 34 36 36 38 36 34 34
23 25 26 25 24 25 27 27 26 26 26 28 33 37 42 45 45 47 49 46 46 47 47 47 49 49 50 49 50 49 44 40 38 35 30 33 40 40 38 36 36 39
28 28 27 28 27 24 26 27 26 25 23 21 24 30 35 40 45 49 51 49 48 48 50 48 47 49 51 51 50 51 49 44 43 39 42 43 43 43 41 40 43 49
28 27 28 29 27 27 28 28 26 26 27 23 23 25 27 29 33 37 42 47 50 53 52 47 46 46 49 51 52 50 53 50 46 43 45 46 46 45 42 43 46 46
Wind_Direction
288 287 291 284 253 208 239 261 276 293 249 231 269 282 266 267 257 249 281 281 304 319 316 271 305 335 17 12 56 122 68 70 55 34 52 67 57 111 136 91 70 81
278 278 270 278 274 269 241 252 275 253 271 255 233 255 266 271 283 277 274 286 290 300 284 292 260 350 44 11 350 43 67 52 60 37 31 45 77 62 84 92 80 86
276 276 278 280 285 295 303 286 265 275 278 289 293 271 276 286 288 294 285 289 291 300 302 298 331 332 338 291 290 13 29 76 68 64 354 32 67 79 69 93 100 52
275 273 273 280 269 279 284 280 286 279 279 286 295 295 289 278 293 295 300 298 292 288 298 314 323 316 319 310 312 347 360 6 24 58 22 27 45 53 61 80 113 142
282 276 266 274 271 269 275 281 295 299 303 294 295 290 284 277 272 293 296 303 298 303 302 305 306 315 307 310 313 318 325 335 343 357 356 17 15 14 18 14 20 28
276 269 270 259 271 277 280 287 296 297 302 302 295 288 294 292 293 286 294 303 309 310 310 308 313 311 313 299 308 299 309 331 324 334 343 349 5 351 1 357 357 22
274 276 277 273 271 275 273 279 281 284 282 281 282 287 284 295 296 296 293 294 299 299 304 296 288 283 294 300 284 291 284 299 306 295 311 324 316 339 332 319 333 326
268 271 271 269 273 268 274 270 271 272 273 271 271 271 277 281 290 289 290 290 287 288 282 289 290 291 277 280 288 287 281 253 305 295 288 290 275 273 277 284 283 308
263 267 272 278 279 274 273 272 271 267 267 267 268 269 271 267 271 274 273 275 276 267 274 273 273 279 281 272 269 276 287 293 269 278 277 267 287 296 297 298 305 311
259 258 269 275 277 276 279 279 275 275 271 268 269 267 270 270 265 263 264 264 262 264 263 265 272 277 271 276 280 279 274 274 267 268 280 287 303 306 307 306 299 302
245 268 272 269 272 275 285 285 283 279 278 280 275 272 274 275 278 274 267 269 270 269 268 269 272 277 280 276 279 282 285 279 285 278 272 290 277 262 264 268 276 294
244 230 232 267 268 275 284 289 290 289 287 286 287 285 281 282 282 282 280 278 275 272 273 276 278 282 285 285 280 276 279 279 275 280 280 282 289 296 294 293 290 296
249 242 241 228 242 242 241 238 242 272 289 289 287 288 288 287 287 286 282 281 282 281 276 272 267 273 276 280 275 270 271 273 269 276 282 278 273 269 282 283 279 292
264 258 246 238 238 235 239 256 254 228 234 268 281 283 287 286 286 289 289 287 285 290 290 279 263 246 247 260 263 256 246 245 249 261 265 260 256 255 252 256 259 245
264 267 272 261 255 256 258 259 261 263 257 242 236 256 278 281 284 280 280 288 287 282 286 285 281 278 262 248 250 253 262 262 255 241 252 257 258 259 265 272 279 283
267 262 258 250 248 254 262 264 261 254 254 259 259 237 233 260 271 270 272 274 277 274 272 273 266 260 252 250 254 254 249 251 255 259 257 260 265 268 265 263 267 264
263 262 264 267 264 259 255 252 256 254 256 258 252 253 257 247 238 253 259 259 262 266 252 252 256 252 250 262 245 234 244 253 262 262 261 263 266 269 265 263 267 267
265 265 263 266 271 273 269 268 265 263 262 260 259 251 249 256 256 253 254 249 245 246 256 256 254 243 242 252 258 250 245 245 251 258 259 256 253 252 258 259 256 259
275 270 271 277 277 273 269 269 269 267 262 258 260 256 252 253 254 258 264 263 254 252 250 251 256 246 243 243 246 243 241 240 254 251 249 244 258 260 254 253 255 259
264 270 275 277 279 279 276 271 268 265 262 258 256 258 260 259 257 252 251 250 254 260 259 256 251 241 240 241 242 241 238 236 245 245 252 247 237 248 257 258 269 270
263 268 269 273 276 278 281 278 269 261 261 259 258 260 262 262 261 261 258 257 256 259 262 259 254 248 246 243 242 240 240 241 248 247 250 252 252 256 268 264 256 260
258 262 265 267 272 278 287 292 283 267 258 253 254 254 255 258 259 260 260 259 260 261 261 260 253 246 247 247 244 242 242 251 250 249 249 248 247 246 241 241 242 245
260 265 271 275 278 284 291 293 290 275 260 255 255 256 255 255 256 255 254 254 256 259 260 260 257 250 249 248 246 242 246 253 253 250 252 254 250 245 246 246 244 246
271 269 268 270 269 276 276 273 276 277 270 259 257 257 254 253 256 256 254 252 254 258 261 264 261 254 250 250 250 246 247 252 255 257 253 251 254 251 255 258 255 244
273 276 279 280 275 269 274 283 284 284 272 264 260 260 259 257 257 258 257 255 256 259 261 263 263 259 254 253 252 250 249 249 251 252 252 250 250 250 249 254 259 264
277 280 279 280 280 274 268 271 275 275 275 277 281 278 272 266 267 265 262 258 254 253 255 259 263 264 259 256 255 251 247 249 251 253 253 249 249 250 250 254 254 258